Regional Weather Roundup
Issued by NWS Boston, MA

Home | Current Version | Previous Version | Text Only | Print | Product List | Glossary On
Versions: 1 2 3 4 5 6 7 8 9 10 11 12 13 14 15 16 17 18 19 20 21 22 23 24 25 26 27 28 29 30 31 32 33 34 35 36 37 38 39 40 41 42 43 44 45 46 47 48 49 50
000
ASUS41 KBOX 260110
RWRBOX

REGIONAL WEATHER ROUNDUP
NATIONAL WEATHER SERVICE TAUNTON MA
900 PM EDT SUN JUN 25 2017

NOTE:  "FAIR" INDICATES FEW OR NO CLOUDS BELOW 12,000 FEET WITH NO
SIGNIFICANT WEATHER AND/OR OBSTRUCTIONS TO VISIBILITY.

MAZALL-260200-
EASTERN MASSACHUSETTS

CITY           SKY/WX    TMP DP  RH WIND       PRES   REMARKS
BOSTON         PTCLDY    73  57  57 SW13      29.90R
BEVERLY        CLEAR     71  57  61 SW8       29.89R
LAWRENCE       CLOUDY    67  63  87 S5        29.91R
BEDFORD        MOCLDY    69  56  62 S5        29.90R
BLUE HILL        N/A     67  57  70 S12       29.92R
NORWOOD        PTCLDY    67  59  75 S6        29.91R
MARSHFIELD     PTCLDY    66  64  94 SW7       29.91S
PLYMOUTH       CLEAR     69  58  67 S6        29.92F
TAUNTON        PTCLDY    68  59  73 S5        29.91F
NEW BEDFORD    PTCLDY    67  54  63 SW8       29.92S
$$

MAZALL-260200-
CAPE COD AND THE ISLANDS

CITY           SKY/WX    TMP DP  RH WIND       PRES   REMARKS
FALMOUTH       NOT AVBL
HYANNIS        PTCLDY    71  53  52 SW17G24   29.92S
CHATHAM        PTCLDY    69  61  75 SW8G16    29.94F
PROVINCETOWN   CLOUDY    67  60  78 SW9       29.92S
NANTUCKET      CLEAR     63  62  97 SW9       29.95S
MARTHAS VNYRD  CLEAR     65  60  84 SW7       29.95R
$$

MAZALL-260200-
CENTRAL AND WESTERN MASSACHUSETTS

CITY           SKY/WX    TMP DP  RH WIND       PRES   REMARKS
WORCESTER      HVY RAIN  60  55  83 W14G32    29.98R
FITCHBURG      RAIN      64  60  87 W12       29.96R
ORANGE         LGT RAIN  62  61  96 VRB7      29.94R
SPRINGFIELD    LGT RAIN  63  61  94 SE5       29.92S
WESTFIELD      CLOUDY    64  62  93 CALM        N/A
NORTH ADAMS    CLOUDY    60  57  89 CALM      29.96F
PITTSFIELD     CLOUDY    63  49  60 N5        29.95S
$$

RIZALL-260200-
RHODE ISLAND

CITY           SKY/WX    TMP DP  RH WIND       PRES   REMARKS
PROVIDENCE     PTCLDY    71  60  68 SW9       29.92S
NEWPORT        CLEAR     68  58  70 S6        29.93F
BLOCK ISLAND   PTCLDY    67  62  84 SW13      29.95F
WESTERLY       CLEAR     72  58  61 SW9       29.95R
$$

CTZALL-260200-
CONNECTICUT

CITY           SKY/WX    TMP DP  RH WIND       PRES   REMARKS
BRADLEY INTL   PTCLDY    73  60  63 SW5       29.91R
HARTFORD       CLEAR     74  58  57 S9        29.91R
BRIDGEPORT     CLEAR     72  61  68 S9        29.93S
DANBURY        CLEAR     71  58  63 S9        29.95R
GROTON         CLEAR     67  60  78 SW9       29.93S
NEW HAVEN      PTCLDY    70  61  73 S6        29.94R
CHESTER        FAIR      70  63  78 S5        29.95S
MERIDEN        CLEAR     70  59  68 S6        29.93S
WILLIMANTIC    CLEAR     74  59  59 S7        29.92S
OXFORD         PTCLDY    66  55  68 S6        29.96R
$$

MEZ002-015-021-024-NHZ003-005-008-011-012-014-VTZ005-008-260200-
NORTHERN NEW ENGLAND

CITY           SKY/WX    TMP DP  RH WIND       PRES   REMARKS
PORTLAND ME    PTCLDY    69  53  56 S6        29.85R
BANGOR ME      MOCLDY    64  57  78 S5        29.85R
CONCORD NH     PTCLDY    73  47  39 W7        29.88R
MANCHESTER NH  CLOUDY    72  48  42 SW6       29.88R
NASHUA NH      LGT RAIN  63  59  87 CALM      29.92R
PORTSMOUTH NH  LGT RAIN  70  57  64 S5        29.86R
JAFFREY NH     LGT RAIN  64  59  83 VRB6      29.95R
KEENE NH       CLOUDY    69  53  56 W10       29.93R
BURLINGTON VT  CLOUDY    64  50  60 E6        29.90F
MT. WASHINGTON LGT RAIN  41  41 100 W37G43      N/A  VSB 1/16WCI  29
$$

NYZ052-076-260200-
EASTERN NEW YORK

CITY           SKY/WX    TMP DP  RH WIND       PRES   REMARKS
ALBANY         PTCLDY    63  56  78 NW8       29.95R
NEW YORK CITY  MOCLDY    77  63  61 S7        29.93R
$$

ANZALL-260200-
MARINE OBSERVATIONS

STATION/POSITION TIME  TEMP    WIND        PRES    VSBY  WAVE
                       AIR SEA DIR/SP/G                  HT/PER
                 (UTC) (F)     (DEG/KT/KT) (MB)    (MI)  (FT/S)
BOSTON BUOY      0050   63 59  200/  6/  8 1012.1R         2/ 8
BUZZARDS BAY     0100   67     230/ 15/ 16 1014.0F
NANTUCKET SOUND  0050      66              1013.6S         1/ 2
MASS BAY-STELLWA 0004   65 61  220/ 10/ 12 1011.4R         2/ 6
ISLE OF SHOALS   0100   68     210/ 19/ 20 1011.2R
S OF BLOCK IS    0055      65                N/A           3/ 7
$$

......................KEY.........................
  SKY/WX - SKY CONDITION/PRESENT WEATHER
  TMP    - TEMPERATURE IN FAHRENHEIT
  DWPT   - DEWPOINT IN FAHRENHEIT
  RH     - RELATIVE HUMIDITY IN PERCENT
  WIND   - DIRECTION AND SPEED IN MPH
  PRES   - MEAN SEA LEVEL PRESSURE IN INCHES OF HG
  WCI    - WIND CHILL INDEX
  VSB    - VISIBILITY IN MILES
  HX     - HEAT INDEX
  TC     - TEMPERATURE IN CELSIUS
  VRB    - VARIABLE WIND DIRECTION
  N/A    - NOT AVAILABLE



USA.gov is the U.S. government's official web portal to all federal, state and local government web resources and services.